Skip Page Navigation
NASA JPL Caltech
NASA Logo - Jet Propulsion Laboratory + View the NASA Portal
+ Center for Near-Earth Object Studies
JPL Home Earth Solar System Stars & Galaxies Technology
JPL Solar System Dynamics
BODIES ORBITS EPHEMERIDES TOOLS PHYSICAL DATA DISCOVERY FAQ SITE MAP
IMPORTANT: The SSD Announcement email list is now available. Major changes are coming in the near future, including possible hostname and/or URL changes. To be notified of such changes, subscribe to this email list.

Please visit this page for more details.


JPL Small-Body Database Browser
Search: [ help ]  
359183 (2009 CT40)
Classification: Main-belt Asteroid          SPK-ID: 2359183
Ephemeris | Orbit Diagram | Orbital Elements | Mission Design | Physical Parameters | Discovery Circumstances | Close-Approach Data ]

[ show orbit diagram ]
Orbital Elements at Epoch 2458600.5 (2019-Apr-27.0) TDB
Reference: JPL 8 (heliocentric ecliptic J2000)
 Element Value Uncertainty (1-sigma)   Units 
e .1360624447332388 8.7647e-08  
a 2.454381434903308 2.2173e-08 au
q 2.120432296562489 2.2321e-07 au
i 2.109327865402025 8.332e-06 deg
node 146.8516615225957 0.00024789 deg
peri 318.977590034309 0.00025864 deg
M 257.4140235029915 6.347e-05 deg
tp 2459000.718360698371
(2020-May-31.21836070)
0.00024832 TDB
period 1404.466914204545
3.85
1.9032e-05
5.211e-08
d
yr
n .2563250129704158 3.4735e-09 deg/d
Q 2.788330573244127 2.519e-08 au
  Orbit Determination Parameters
   # obs. used (total)      104  
   data-arc span      5441 days (14.90 yr)  
   first obs. used      2004-12-03  
   last obs. used      2019-10-27  
   planetary ephem.      DE431  
   SB-pert. ephem.      SB431-N16  
   condition code      0  
   norm. resid. RMS      .66628  
   source      ORB  
   producer      Otto Matic  
   solution date      2019-Nov-08 11:14:40  

Additional Information
 Earth MOID = 1.13799 au 
 Jupiter MOID = 2.33025 au 
 T_jup = 3.480 
[ show covariance matrix ]

Ephemeris | Orbit Diagram | Orbital Elements | Mission Design | Physical Parameters | Discovery Circumstances | Close-Approach Data ]

Physical Parameter Table
Parameter Symbol Value Units Sigma Reference Notes
absolute magnitude H 18.2   n/a MPO408544  

359183 (2009 CT40)          Discovered 2009-Feb-13 by Spacewatch at Kitt Peak
Reference: 20130327/Numbers.arcLast Updated: 2013-03-29

[ show close-approach data ]
Alternate Designations
 2009 CT40 = 2004 XU67 
Ephemeris | Orbit Diagram | Orbital Elements | Mission Design | Physical Parameters | Discovery Circumstances | Close-Approach Data ]
ABOUT SSD CREDITS/AWARDS PRIVACY/COPYRIGHT GLOSSARY LINKS
FirstGov
(server date/time)  
NASA Home Page
Site Manager:   Ryan S. Park
Webmaster  Alan B. Chamberlin